TimeCST,TemperatureF,Dew PointF,Humidity,Sea Level PressureIn,VisibilityMPH,Wind Direction,Wind SpeedMPH,Gust SpeedMPH,PrecipitationIn,Events,Conditions,WindDirDegrees,DateUTC
12:55 AM,61.7,59.7,93,30.19,10.0,Calm,Calm,-,N/A,,Overcast,0,2012-12-05 06:55:00
1:55 AM,61.3,59.4,93,30.18,10.0,SSE,3.5,-,N/A,,Overcast,150,2012-12-05 07:55:00
2:55 AM,60.4,59.0,95,30.17,10.0,Calm,Calm,-,N/A,,Overcast,0,2012-12-05 08:55:00
3:55 AM,59.7,58.5,96,30.17,10.0,Calm,Calm,-,N/A,,Scattered Clouds,0,2012-12-05 09:55:00
4:03 AM,59.0,57.2,94,30.17,2.5,Calm,Calm,-,N/A,,Partly Cloudy,0,2012-12-05 10:03:00
4:08 AM,59.0,57.2,94,30.17,1.8,Calm,Calm,-,N/A,,Clear,0,2012-12-05 10:08:00
4:12 AM,59.0,57.2,94,30.17,2.0,Calm,Calm,-,N/A,,Clear,0,2012-12-05 10:12:00
4:16 AM,59.0,57.2,94,30.17,1.2,Calm,Calm,-,N/A,,Clear,0,2012-12-05 10:16:00
4:18 AM,59.0,57.2,94,30.17,1.0,Calm,Calm,-,N/A,,Clear,0,2012-12-05 10:18:00
4:20 AM,59.0,57.2,94,30.17,0.8,Calm,Calm,-,N/A,,Partly Cloudy,0,2012-12-05 10:20:00
4:27 AM,57.2,57.2,100,30.17,1.0,Calm,Calm,-,N/A,,Partly Cloudy,0,2012-12-05 10:27:00
4:29 AM,57.2,57.2,100,30.17,1.2,Calm,Calm,-,N/A,,Clear,0,2012-12-05 10:29:00
4:33 AM,57.2,57.2,100,30.17,1.0,Calm,Calm,-,N/A,,Clear,0,2012-12-05 10:33:00
4:35 AM,57.2,57.2,100,30.17,0.8,Calm,Calm,-,N/A,,Clear,0,2012-12-05 10:35:00
4:37 AM,57.2,57.2,100,30.17,0.5,Calm,Calm,-,N/A,Fog,Fog,0,2012-12-05 10:37:00
4:38 AM,57.2,57.2,100,30.17,0.5,Calm,Calm,-,N/A,Fog,Fog,0,2012-12-05 10:38:00
4:40 AM,57.2,57.2,100,30.17,0.5,Calm,Calm,-,N/A,Fog,Fog,0,2012-12-05 10:40:00
4:55 AM,56.7,56.1,98,30.18,0.5,Calm,Calm,-,N/A,Fog,Fog,0,2012-12-05 10:55:00
4:59 AM,57.2,55.4,94,30.18,0.5,Calm,Calm,-,N/A,Fog,Fog,0,2012-12-05 10:59:00
5:09 AM,57.2,55.4,94,30.18,0.5,Calm,Calm,-,N/A,Fog,Fog,0,2012-12-05 11:09:00
5:14 AM,55.4,55.4,100,30.18,0.5,Calm,Calm,-,N/A,Fog,Fog,0,2012-12-05 11:14:00
5:16 AM,55.4,55.4,100,30.18,0.2,Calm,Calm,-,N/A,Fog,Fog,0,2012-12-05 11:16:00
5:37 AM,55.4,53.6,94,30.19,0.5,Calm,Calm,-,N/A,Fog,Fog,0,2012-12-05 11:37:00
5:46 AM,55.4,55.4,100,30.19,0.5,Calm,Calm,-,N/A,Fog,Fog,0,2012-12-05 11:46:00
5:47 AM,55.4,55.4,100,30.19,0.8,Calm,Calm,-,N/A,,Clear,0,2012-12-05 11:47:00
5:51 AM,55.4,55.4,100,30.19,1.5,Calm,Calm,-,N/A,,Partly Cloudy,0,2012-12-05 11:51:00
5:55 AM,55.6,55.4,99,30.19,1.0,Calm,Calm,-,N/A,,Scattered Clouds,0,2012-12-05 11:55:00
5:58 AM,55.4,55.4,100,30.19,0.5,Calm,Calm,-,N/A,Fog,Fog,0,2012-12-05 11:58:00
5:59 AM,55.4,55.4,100,30.19,0.5,Calm,Calm,-,N/A,Fog,Fog,0,2012-12-05 11:59:00
6:01 AM,55.4,55.4,100,30.19,0.5,Calm,Calm,-,N/A,Fog,Fog,0,2012-12-05 12:01:00
6:05 AM,55.4,55.4,100,30.19,0.5,Calm,Calm,-,N/A,Fog,Fog,0,2012-12-05 12:05:00
6:16 AM,55.4,55.4,100,30.20,0.5,Calm,Calm,-,N/A,Fog,Fog,0,2012-12-05 12:16:00
6:23 AM,55.4,53.6,94,30.20,0.2,Calm,Calm,-,N/A,Fog,Fog,0,2012-12-05 12:23:00
6:25 AM,55.4,53.6,94,30.20,0.2,Calm,Calm,-,N/A,Fog,Fog,0,2012-12-05 12:25:00
6:35 AM,55.4,55.4,100,30.20,0.2,Calm,Calm,-,N/A,Fog,Fog,0,2012-12-05 12:35:00
6:55 AM,55.2,55.0,99,30.21,0.2,Calm,Calm,-,N/A,Fog,Fog,0,2012-12-05 12:55:00
8:55 AM,62.4,62.1,99,30.22,10.0,Calm,Calm,-,N/A,,Scattered Clouds,0,2012-12-05 14:55:00
9:55 AM,64.8,61.7,90,30.22,10.0,Calm,Calm,-,N/A,,Partly Cloudy,0,2012-12-05 15:55:00
10:55 AM,70.7,55.9,59,30.19,10.0,Calm,Calm,-,N/A,,Scattered Clouds,0,2012-12-05 16:55:00
11:55 AM,76.5,53.2,44,30.15,10.0,Variable,3.5,-,N/A,,Mostly Cloudy,0,2012-12-05 17:55:00
12:55 PM,74.7,53.8,48,30.11,10.0,North,5.8,-,N/A,,Mostly Cloudy,10,2012-12-05 18:55:00
1:55 PM,74.8,52.2,45,30.09,10.0,NNE,5.8,-,N/A,,Mostly Cloudy,20,2012-12-05 19:55:00
2:55 PM,74.7,51.4,44,30.08,10.0,NNE,4.6,-,N/A,,Overcast,30,2012-12-05 20:55:00
3:55 PM,72.9,52.5,49,30.08,10.0,NNE,5.8,-,N/A,,Overcast,30,2012-12-05 21:55:00
4:55 PM,68.0,52.5,58,30.09,10.0,North,5.8,-,N/A,,Overcast,10,2012-12-05 22:55:00
5:55 PM,66.4,52.3,61,30.10,10.0,North,4.6,-,N/A,,Mostly Cloudy,10,2012-12-05 23:55:00
6:55 PM,66.2,53.8,64,30.11,10.0,Calm,Calm,-,N/A,,Overcast,0,2012-12-06 00:55:00
7:55 PM,61.5,53.8,76,30.12,10.0,North,4.6,-,N/A,,Mostly Cloudy,10,2012-12-06 01:55:00
8:55 PM,60.3,54.5,81,30.12,10.0,NNE,5.8,-,N/A,,Partly Cloudy,20,2012-12-06 02:55:00
9:55 PM,59.7,54.9,84,30.12,10.0,NNE,4.6,-,N/A,,Scattered Clouds,20,2012-12-06 03:55:00
10:55 PM,58.5,54.9,88,30.11,10.0,Calm,Calm,-,N/A,,Partly Cloudy,0,2012-12-06 04:55:00
11:55 PM,56.7,54.9,94,30.09,10.0,Calm,Calm,-,N/A,,Clear,0,2012-12-06 05:55:00